STARLINK-4722, 53775

Orbit data source: Space-Track

STARLINK-4722, 53775 is a payload satellite owned by SpaceX/Seattle (US) in LEO that was launched on Sun, 11 Sep 2022 UTC via an FALCON 9 launch vehicle from the Air Force Eastern Test Range (AFETR). Payload-class satellites include a variety of spacecraft equipped with specific instruments for various scientific and technological missions. These include communications satellites like Starlink; space stations such as the ISS; scientific satellites like the Hubble; Earth observation satellites from companies like Planet Labs, Umbra, and HawkEye 360; GPS; miniature CubeSats for education and research; and military/defense satellites.

Loading next visibility...
Identifier
53775, 2022-111C
Orbit
LEO
Country
Flag of USUS
Related business
Manufacturer
SpaceX/Seattle
Mission
Operational Commercial Communications
Bus & Motor
STARLINK, Unknown motor
Mass
305 kg wet, ~290 kg dry
Launch date (UTC)
2022-09-11 (3 years ago)
Launch vehicle
FALCON 9
Launch site
Air Force Eastern Test Range (AFETR)
Object type
Payload
Rocket body
Debris
Shape & HBR
Box + 1 Pan, 10.1 m
Radar Cross Section
13.562 m², Large (>1 m²)

Expand to show TLE details & history
Last TLE update: 15 hours ago

TLE from 15 hours ago
0 STARLINK-4722
1 53775U 22111C   25286.50949282  .00000354  00000-0  40348-4 0  9991
2 53775  53.2169 215.0724 0001287  89.4536 270.6604 15.08845034171472
Epoch: 2025-10-13T12:13Z
TLE epoch observation values (Epoch: 2025-10-13T12:13:40.179Z)
Latitude
-0°
Longitude
9.34374°
Altitude
540.615 km
Speed
7.593 km/s
True Right ascension
14h 20m 17s
True Declination
0° 00' 00"
Sunlit
Object was in daylight at epoch
Visualization orbit readout
Latitude
Unknown
Longitude
Unknown
Altitude
Unknown
Speed
Unknown
Apparent Right ascension
Unknown
Apparent Declination
Unknown
Sunlit
N/A
Visualization observer readout
Local Sidereal Time
21:19:30
Azimuth
Unknown
Elevation
Unknown
Doppler factor
Unknown
Orbital elements
Apogee altitude
540.863 km
Perigee altitude
539.083 km
Semi-major axis
6,918.11 km
Eccentricity
0.00013
Inclination
53.2169°
RAAN
215.0724°
Arg. of periapsis
89.4536°
True anomaly
270.64565°
Mean anomaly
270.6604°
Eccentric anomaly
270.65303°
Mean motion
3.77192 °/min
Orbital period
95.44 mins
BSTAR
0.000040348
Loading maneuver chart data...
Computing Atmospheric mass density...
Loading historical data...
Loading historical data...
Loading historical data...
Loading historical data...
Loading historical data...
Loading historical data...
Loading historical data...

Documentation

Showing up to 5 results
|